Location: Beadle
(51.4667°N, 109.0000°W)
Time: 22:57:25
(UTC+00:00)

DIWATA 2B (PO-101) - Pass Details

Date: 29 June 2022
Orbit: 583 x 599 km, 98.0° (Epoch: 07 August)

Event Time Altitude Azimuth Distance (km) Brightness Sun altitude
Exits shadow 07:48:35 - 124° (SE) 2,543 ? -15.0°
Reaches altitude 10° 07:50:19 10° 113° (ESE) 1,941 ? -15.0°
Maximum altitude 07:53:36 23° 61° (ENE) 1,303 ? -14.9°
Drops below altitude 10° 07:56:56 10° 10° (N) 1,953 ? -14.9°
Sets 07:59:27 0° 356° (N) 2,861 ? -14.8°
